Wind_Gust
7 16 12 13 16 19 22 23 24 24 25 22 20 20 21 20 20 20 20 20 20 20 20 20 19 19 20 20 19 20 20 21 21 21 21 21 21 21 21 20 19 20 21 22 22 22 20 20 21 21 20 19 20 20 20 21 20 20 20 20 20 20 19 21 22 21 20 21 20 21 20 21 22 22 23 23 22 21 19 19 16 14 10 16 19
14 10 10 12 16 19 22 23 24 24 24 24 22 21 21 21 20 20 19 20 19 20 20 20 19 19 19 19 20 20 19 20 20 20 20 20 20 20 19 19 18 19 21 22 22 21 19 19 19 20 19 19 19 19 19 19 19 19 18 18 19 20 20 20 19 19 20 19 21 21 20 21 21 21 22 22 21 21 19 18 18 10 7 17 18
14 11 9 12 16 20 22 24 25 24 24 23 24 22 21 20 20 19 19 19 19 18 19 19 18 18 18 18 19 19 19 20 20 20 19 18 19 19 18 17 18 19 20 21 22 21 19 19 18 18 18 18 18 18 18 18 18 18 18 19 19 18 19 18 18 19 19 20 19 19 20 20 20 20 21 21 20 20 19 19 18 16 16 18 17
17 11 9 13 19 18 21 23 24 25 23 23 22 21 21 20 20 19 20 19 18 18 18 18 18 17 17 17 18 19 19 19 19 19 18 18 17 18 17 16 18 19 20 20 19 19 19 18 18 18 18 18 17 17 17 17 18 17 16 17 18 18 17 18 18 19 19 20 18 13 10 9 16 20 20 20 21 20 18 18 18 18 18 17 18
17 12 10 10 12 17 20 22 23 25 24 23 22 23 23 21 21 20 19 19 18 17 17 18 18 17 17 17 18 18 18 18 18 18 18 17 16 17 18 18 18 18 18 19 19 19 19 18 17 17 17 17 16 16 16 16 17 16 16 17 17 16 16 18 18 20 20 18 15 10 7 8 10 17 18 19 19 18 18 18 18 18 17 18 17
16 13 10 9 9 15 19 22 24 25 24 24 23 23 23 23 22 20 20 19 19 17 17 17 17 17 17 17 17 17 18 18 17 17 16 17 15 16 18 18 19 16 16 18 18 17 17 17 17 17 16 16 15 14 14 14 15 14 14 14 14 15 16 17 19 21 22 16 11 7 7 5 5 11 18 18 17 16 16 17 16 16 16 17 17
18 14 12 10 10 13 19 22 25 25 24 24 23 22 22 22 22 21 20 19 18 17 16 16 17 17 17 17 18 17 17 17 17 17 16 16 15 14 16 16 18 16 16 16 16 16 17 16 16 16 16 15 14 13 13 13 13 13 13 13 12 11 13 15 18 14 15 10 5 6 6 6 6 10 15 17 17 18 17 17 17 17 15 16 17
17 14 12 12 11 15 19 22 25 24 24 24 23 23 23 23 21 21 20 20 19 17 17 16 16 17 17 17 17 17 17 17 17 16 15 14 14 16 16 15 15 14 14 15 16 15 15 16 16 15 15 14 14 13 12 11 11 11 11 11 10 9 8 6 7 5 9 6 3 5 7 4 5 8 14 15 17 17 17 17 16 16 17 16 16
16 14 13 12 13 17 19 20 23 25 24 24 23 23 23 22 21 20 20 20 19 18 18 17 17 16 17 17 17 17 17 17 17 17 16 15 14 14 14 13 12 12 12 10 12 13 14 15 15 16 16 17 16 11 10 10 9 9 9 8 8 8 7 5 4 3 4 6 6 5 5 4 4 7 13 17 18 18 17 13 14 17 15 16 16
16 13 12 11 13 16 18 20 22 24 23 23 24 23 23 22 21 22 21 21 20 19 19 18 18 17 16 16 16 16 17 17 16 17 16 16 16 15 14 14 12 12 11 12 14 13 15 15 14 14 14 15 16 12 9 8 8 7 7 7 7 7 7 5 4 5 5 7 9 7 5 9 5 8 15 15 17 17 16 15 11 12 12 15 15
16 14 11 11 13 16 18 19 21 22 23 23 23 23 23 22 21 20 19 20 20 19 18 18 18 17 17 16 16 16 16 16 16 16 16 15 15 13 14 14 12 10 11 11 13 14 15 15 14 14 14 14 14 10 6 6 6 6 5 6 6 7 6 6 6 5 14 14 9 5 9 10 4 5 17 17 16 16 15 14 14 14 14 14 14
19 13 13 9 18 15 17 18 19 20 21 21 22 22 22 21 21 20 20 19 19 18 18 17 16 17 17 17 16 16 16 15 16 15 16 15 15 14 14 13 12 14 15 15 16 16 17 16 16 15 14 13 13 11 5 4 4 4 4 6 6 6 6 8 5 9 12 11 8 6 6 5 5 13 18 17 16 14 14 14 14 14 14 14 14
20 16 11 8 9 15 17 18 18 18 21 22 22 22 22 21 21 20 19 17 17 17 18 17 16 15 15 16 16 15 15 14 14 15 15 15 15 14 13 14 14 15 15 15 16 17 17 16 15 14 13 12 12 11 6 4 4 4 6 7 7 7 9 9 6 11 10 8 7 6 4 4 6 14 15 16 16 17 16 14 14 14 14 13 12
22 16 16 8 9 19 18 18 17 19 19 20 20 20 20 20 20 19 17 17 16 16 15 15 15 15 15 15 15 14 14 13 13 14 14 14 14 13 13 14 13 14 14 14 14 15 15 14 13 13 12 10 9 9 6 4 6 7 8 8 8 9 9 7 7 9 9 8 6 6 5 5 8 14 15 16 15 15 15 14 14 13 13 13 11
21 18 17 12 8 14 21 17 17 18 18 18 18 18 18 18 17 17 17 17 17 16 15 16 15 15 16 15 14 15 14 14 14 13 13 12 13 13 12 13 13 13 14 14 14 13 13 12 12 11 10 8 7 5 4 3 5 7 8 9 11 11 11 6 4 12 11 9 7 8 7 8 12 13 16 16 14 14 14 14 13 13 13 12 13
19 17 19 19 12 11 14 20 19 18 18 18 18 18 17 17 17 17 16 16 15 15 15 15 15 16 15 14 13 13 14 14 13 13 12 12 12 12 12 12 12 13 15 14 13 12 12 12 11 10 9 8 6 6 4 2 4 6 7 8 10 12 13 8 4 13 9 9 7 6 8 9 12 13 15 15 14 14 14 14 14 14 13 12 11
19 17 18 15 13 10 13 13 17 22 18 17 18 18 17 17 16 16 15 16 16 15 16 15 15 15 15 14 13 12 13 13 13 13 12 12 11 12 12 11 11 14 15 14 13 13 13 12 11 9 9 7 5 5 5 4 4 5 6 7 9 11 12 12 6 10 10 8 9 8 7 9 14 13 16 15 14 14 13 14 14 13 13 12 11
22 21 21 16 13 11 13 14 16 15 15 16 16 17 16 16 15 15 15 14 14 14 13 13 13 14 15 15 14 13 14 13 12 11 10 11 9 10 11 12 12 14 15 14 14 13 13 12 11 9 8 6 4 2 2 3 3 4 4 5 8 10 13 11 6 9 9 10 9 8 7 9 14 15 16 16 14 13 13 13 12 12 12 12 12
17 18 16 15 13 12 12 12 12 12 12 11 11 16 16 16 14 14 14 13 13 13 13 12 13 13 14 14 14 14 14 14 13 11 10 10 11 9 10 11 12 14 15 14 14 14 12 11 10 9 8 5 3 2 3 5 5 5 5 5 8 12 13 9 7 6 8 8 8 9 9 12 12 16 18 17 15 13 13 13 13 12 12 12 12
17 16 12 10 13 13 12 13 12 11 10 10 12 12 15 17 14 13 14 14 14 14 13 13 14 14 16 15 14 12 11 10 14 11 11 9 8 6 10 11 12 13 14 15 14 13 12 11 10 9 7 5 3 3 5 5 5 6 5 5 11 14 8 7 7 6 6 5 6 8 11 14 15 17 18 17 15 14 13 13 12 12 13 13 12
12 8 10 11 12 13 13 12 11 11 10 10 10 11 15 17 14 15 15 15 13 13 13 14 13 13 13 13 11 8 6 6 8 6 9 6 6 8 10 11 12 12 13 13 13 12 12 11 9 7 7 6 4 3 6 7 8 8 7 6 10 11 4 6 9 8 7 5 6 8 14 15 16 17 17 17 16 14 13 12 12 12 12 12 11
10 9 9 11 12 11 12 12 12 11 10 10 9 9 11 12 9 10 10 12 11 12 10 8 11 7 13 11 8 7 6 6 5 9 5 6 6 8 9 10 11 12 10 9 12 10 10 9 8 7 6 4 3 2 6 9 10 10 10 8 10 9 3 5 11 8 6 6 7 9 16 15 16 16 17 16 16 15 13 12 12 11 12 12 12
13 11 10 12 11 11 11 12 12 11 10 8 9 8 8 8 7 8 9 9 11 11 7 9 5 7 8 8 7 6 6 5 4 7 6 7 6 10 9 9 9 10 10 10 10 9 7 7 7 7 4 3 1 1 4 6 8 11 10 6 8 8 1 4 11 8 8 6 5 12 15 14 15 16 16 16 15 15 14 13 12 12 11 12 11
15 14 14 11 11 10 10 11 12 12 11 9 8 7 8 7 8 8 8 8 6 7 5 7 6 7 8 8 7 6 5 4 9 11 10 6 4 8 10 8 8 9 10 7 9 9 9 7 6 6 5 2 1 2 3 5 7 9 9 7 5 8 2 4 11 9 9 8 6 13 15 15 14 16 16 15 15 14 13 13 13 12 12 10 11
11 12 12 12 10 10 10 9 11 12 11 10 9 8 7 7 6 8 7 6 6 6 7 6 5 6 7 8 7 6 6 4 4 4 5 5 5 4 4 4 4 5 7 5 5 5 5 4 3 3 2 3 3 4 2 5 6 7 9 8 5 8 2 4 10 10 9 8 9 13 13 11 13 14 15 14 15 14 13 13 13 12 11 10 9
8 11 11 12 11 11 11 11 11 11 10 10 10 10 10 7 7 6 6 5 7 6 6 6 6 6 6 6 7 7 5 5 6 5 5 7 5 5 6 5 5 5 6 7 4 4 4 5 4 4 5 3 4 4 3 5 7 7 6 7 7 8 6 6 9 9 9 9 10 14 11 11 12 14 14 14 14 14 13 12 13 13 12 11 10
7 8 9 11 12 11 11 12 11 11 9 9 8 8 8 7 8 8 9 7 7 8 7 5 4 5 5 5 7 7 6 5 6 5 6 7 6 6 6 6 5 6 6 7 5 4 6 5 6 6 5 4 5 4 4 5 6 7 7 7 5 6 4 9 8 9 9 9 10 15 12 12 13 15 15 15 14 13 13 12 12 13 12 11 11
7 7 7 9 12 14 11 12 10 10 9 10 9 9 7 8 10 11 7 8 8 7 7 6 4 6 5 4 6 7 8 6 6 6 5 7 7 6 6 5 6 6 6 7 6 6 6 4 4 4 5 5 5 5 5 7 8 7 6 6 7 4 7 9 9 8 9 9 9 13 13 13 13 13 14 14 14 14 13 13 13 12 12 12 12
7 6 8 9 12 12 13 13 11 12 10 10 11 9 9 9 8 8 9 9 6 7 9 8 5 5 6 6 6 8 7 7 7 6 6 7 7 7 7 6 5 6 7 6 8 7 7 6 5 5 4 4 3 5 6 8 10 9 9 5 6 6 8 10 11 11 9 8 8 10 13 12 11 11 13 13 14 14 14 13 13 12 13 12 11
8 7 8 8 10 14 15 15 16 15 14 12 10 11 10 10 9 9 9 8 6 6 8 9 8 6 6 5 4 7 8 8 7 4 9 8 7 7 6 6 7 6 6 7 6 7 7 4 4 5 4 4 4 7 5 9 8 8 8 7 5 8 10 12 11 11 11 10 8 8 12 11 11 11 11 12 14 14 14 14 14 14 14 13 12
7 11 9 15 16 16 15 15 15 13 14 14 12 12 10 9 9 9 8 8 5 7 8 9 8 8 7 5 4 5 6 5 5 6 7 8 7 7 7 6 7 7 6 6 5 6 6 7 6 6 6 3 3 3 5 6 4 4 3 3 4 6 9 10 12 12 13 13 11 9 12 13 12 13 12 11 10 13 14 14 15 13 14 14 13
13 8 13 16 21 19 14 15 15 15 15 14 12 11 10 10 10 9 9 7 7 7 8 9 10 8 8 6 5 5 6 5 6 7 7 8 7 8 7 8 8 6 5 5 6 6 6 6 5 4 6 2 3 2 3 3 5 3 2 1 3 8 8 8 12 13 13 12 12 11 11 12 13 14 14 12 11 10 13 14 14 14 13 14 14
13 13 17 27 24 17 15 14 15 13 14 13 13 11 11 12 11 10 10 11 8 7 8 8 9 8 7 8 7 6 4 6 3 4 7 7 7 6 6 6 6 7 6 5 4 5 4 5 6 2 2 5 4 2 2 4 7 6 4 5 5 7 5 12 9 13 13 13 13 13 11 11 10 13 14 15 13 11 12 12 14 14 13 15 15
17 13 13 25 20 10 13 15 15 15 11 12 12 12 11 10 9 9 10 9 8 8 8 7 8 8 8 7 7 7 6 5 6 5 6 6 6 8 8 4 3 3 3 2 6 5 5 4 4 7 4 4 1 1 2 5 6 5 9 7 8 8 7 9 8 5 3 7 11 12 11 11 10 10 10 14 15 13 13 12 15 15 14 15 15
14 14 17 21 15 13 16 15 14 12 12 13 14 12 11 12 10 8 9 8 6 5 6 6 9 8 7 6 6 7 7 6 5 7 5 4 4 3 3 5 4 3 4 2 1 2 2 6 7 6 3 2 2 3 3 4 4 8 7 9 9 8 8 8 7 9 8 5 5 4 8 11 11 9 10 9 12 15 14 13 14 13 16 15 16
18 19 17 17 16 14 17 17 13 13 12 15 14 14 14 12 10 10 8 7 8 8 6 5 7 8 7 6 6 8 6 5 6 6 5 5 5 2 3 6 5 6 6 3 2 2 1 4 2 7 4 3 4 7 7 4 5 6 3 5 6 6 8 7 8 7 5 7 8 7 6 7 10 12 11 10 9 11 15 14 13 13 14 15 15
15 17 17 17 17 15 19 19 16 14 13 13 13 10 11 11 10 9 9 8 9 8 5 4 7 7 7 7 6 6 6 5 4 6 6 6 6 4 2 5 5 6 5 5 3 1 3 4 5 2 7 5 5 6 7 5 2 4 1 5 5 4 5 7 5 5 7 4 6 9 8 8 7 8 7 8 9 10 13 15 13 13 13 14 13
15 17 17 21 19 14 14 15 13 13 14 15 12 10 9 10 11 13 11 9 7 7 7 6 7 8 7 8 6 7 7 6 5 6 6 5 4 5 3 6 6 7 7 4 5 2 5 6 5 4 3 7 4 5 3 2 2 3 3 5 3 3 2 3 4 5 6 5 5 5 12 11 11 10 9 9 9 9 10 14 14 13 13 14 14
17 17 17 17 16 14 13 14 14 12 12 13 11 10 11 11 10 12 10 8 8 5 4 3 4 3 2 2 4 6 7 6 5 7 8 6 5 4 5 6 7 9 11 7 5 4 5 4 5 3 6 5 5 4 4 3 2 2 4 2 2 2 2 2 3 7 6 6 4 4 3 10 7 6 6 6 5 6 8 8 10 10 12 15 14
17 18 16 16 15 13 11 12 11 12 10 11 12 12 12 14 14 10 11 9 6 7 4 5 3 3 3 3 3 6 6 7 8 7 6 6 4 4 6 5 6 7 9 10 5 4 5 5 4 5 5 5 5 5 4 4 1 3 3 5 3 3 2 1 2 3 5 6 7 4 6 3 11 10 10 10 9 8 7 5 6 7 6 9 12
16 18 17 14 15 18 15 13 9 10 13 13 10 12 13 14 12 12 12 7 9 6 6 4 6 4 6 8 7 6 4 5 9 9 8 8 8 6 4 4 5 6 6 6 6 4 4 4 5 4 4 4 3 3 3 4 5 4 6 5 7 5 3 3 3 2 3 6 3 4 4 5 2 6 12 11 11 11 10 9 9 7 7 5 7
14 17 18 15 13 13 15 13 9 8 9 10 10 9 8 13 15 14 13 10 10 10 7 4 4 4 5 5 5 7 8 8 5 4 7 7 8 7 6 6 6 7 6 6 4 6 6 6 5 5 3 4 3 2 2 4 6 3 4 6 7 6 3 3 3 3 1 3 5 5 4 4 3 4 2 10 12 12 11 11 10 11 10 9 8
14 16 15 15 13 12 12 11 9 9 8 6 8 8 5 8 13 12 15 11 5 6 7 4 4 7 7 5 4 3 3 2 3 7 7 4 7 8 8 8 6 6 6 6 4 5 6 4 3 6 4 3 2 2 1 3 4 2 2 3 4 5 8 7 4 3 2 2 3 5 5 5 2 1 3 3 5 9 11 11 12 12 12 11 10
15 13 15 16 14 13 11 11 10 7 6 4 6 6 9 8 11 12 8 11 11 8 7 5 6 9 9 8 8 7 6 6 5 5 5 3 7 6 5 5 7 5 6 5 4 5 7 6 3 4 6 4 4 2 2 4 5 6 4 5 5 3 4 5 4 7 6 3 1 3 4 6 4 2 4 2 5 4 7 10 12 13 13 13 13
14 16 16 16 15 14 13 12 10 6 5 6 10 12 15 13 13 11 13 14 12 10 8 8 6 4 5 8 6 6 7 7 7 9 7 7 5 6 6 5 5 4 5 6 5 6 6 6 7 6 7 7 6 4 2 4 3 2 5 5 5 4 7 5 2 3 6 4 5 3 2 2 5 8 4 5 9 8 5 4 5 6 9 12 12
15 15 15 15 13 13 12 11 7 7 8 8 13 14 16 17 15 16 14 12 11 9 9 8 5 7 6 2 4 6 6 8 8 9 10 9 9 7 6 6 4 6 6 5 4 5 5 4 3 5 3 2 7 6 6 3 6 4 2 2 5 7 5 4 3 6 6 1 5 4 3 4 1 5 9 10 12 8 7 4 2 4 5 7 8
13 13 13 14 14 15 13 11 10 9 10 9 11 16 14 14 15 14 14 15 14 7 5 5 7 4 4 5 4 5 6 9 8 9 8 8 9 9 10 10 8 7 6 7 6 4 4 4 4 5 4 4 6 4 7 6 7 3 2 4 6 2 2 2 3 2 2 6 4 4 6 4 4 5 3 7 13 9 7 5 6 7 6 6 5
14 14 15 14 16 16 15 12 10 13 10 12 12 16 17 12 11 11 12 12 12 12 9 8 6 5 7 3 4 5 5 6 8 8 7 9 11 11 11 9 10 8 11 10 8 7 8 6 5 5 5 4 4 8 4 7 7 6 6 5 5 4 3 3 2 5 5 2 4 7 3 6 6 6 5 6 7 6 4 8 7 6 6 4 3
16 18 17 16 16 16 16 12 12 14 12 12 15 13 17 15 14 13 11 7 11 13 10 7 7 5 6 4 6 4 5 6 7 8 7 9 10 9 10 10 10 8 9 10 9 9 8 7 7 8 6 6 4 5 7 4 2 4 7 3 1 4 4 4 2 4 3 2 2 2 6 8 4 8 9 7 7 7 7 6 7 6 5 4 5
14 14 12 14 15 15 16 15 13 14 15 13 16 14 15 16 15 11 13 12 12 11 10 10 8 6 7 6 6 7 6 7 7 7 8 7 8 9 10 9 8 8 9 9 9 10 9 9 7 7 7 8 7 8 5 4 4 4 2 7 4 4 3 4 5 3 4 3 3 3 4 6 8 10 3 6 9 7 5 5 5 7 9 9 9
7 11 13 15 15 17 17 16 15 14 13 15 16 16 15 16 16 13 13 14 14 14 13 10 8 6 8 6 6 5 5 6 7 6 7 7 7 7 8 7 7 7 8 9 8 9 8 9 8 8 8 8 9 9 8 5 6 9 9 10 7 5 4 4 3 5 4 4 4 4 4 4 2 6 9 8 7 5 6 6 7 5 7 10 5
Wind_Speed
4 9 7 8 11 14 16 17 18 19 19 18 17 17 17 16 16 16 16 16 16 16 16 16 16 16 16 16 16 17 17 18 18 17 17 17 17 17 16 16 15 16 17 17 17 16 15 16 16 16 15 15 15 15 15 16 16 16 16 16 16 15 15 17 16 15 16 16 15 16 15 16 16 16 17 17 16 15 14 14 12 8 5 10 14
8 6 6 6 11 14 16 17 18 19 19 19 18 17 17 16 16 16 16 16 16 16 16 15 15 15 15 15 16 16 16 17 17 17 16 16 16 16 15 15 15 15 17 17 16 15 15 15 15 15 15 14 14 15 15 14 15 15 15 15 15 16 15 15 15 15 14 15 17 16 16 16 16 16 16 16 16 15 14 13 14 6 4 12 14
8 7 5 7 11 14 15 16 19 19 19 18 19 17 17 16 15 16 16 15 15 15 15 15 14 14 14 15 15 16 16 16 16 16 16 15 15 15 14 14 14 15 16 17 16 15 15 15 14 14 14 13 13 14 14 13 14 15 15 15 14 14 14 14 14 14 15 15 15 15 16 16 15 15 16 15 15 15 15 14 13 12 8 14 12
11 6 5 8 14 13 15 16 17 19 19 18 18 17 16 15 15 16 15 14 14 15 15 15 14 14 14 14 15 15 15 16 16 16 15 15 14 15 14 13 14 15 16 16 15 15 14 14 14 14 14 13 13 13 13 13 14 14 13 14 14 14 14 14 14 14 14 14 13 10 5 5 9 15 15 15 16 15 14 13 14 14 13 12 14
11 7 6 6 7 11 14 16 17 19 19 18 18 18 17 16 15 16 15 14 13 13 14 14 14 14 14 14 14 15 15 15 15 15 15 14 13 14 14 14 14 13 15 15 15 15 15 14 13 13 13 13 12 12 12 13 13 13 13 13 13 13 13 14 14 14 13 12 11 7 4 5 5 13 14 15 14 14 14 14 14 14 13 13 13
10 8 6 5 6 9 14 16 18 20 19 19 18 18 18 17 16 16 15 14 13 13 13 14 14 14 14 14 14 14 14 14 14 14 13 14 13 14 14 14 15 12 13 14 14 14 13 13 13 13 12 12 10 10 11 11 11 12 11 11 11 12 13 14 15 16 12 10 8 4 3 3 3 6 14 13 13 12 13 13 12 12 12 13 13
12 8 7 6 6 8 14 16 20 20 19 19 19 18 17 17 16 15 15 14 13 13 13 13 14 14 14 14 14 14 14 14 14 13 13 13 13 12 13 12 14 12 13 13 12 12 13 13 12 12 11 10 9 10 10 10 10 11 11 10 10 9 11 12 15 11 11 5 3 3 4 3 4 3 12 13 12 14 14 13 12 11 12 12 11
9 7 7 7 7 10 14 16 19 20 20 19 19 19 18 17 16 16 15 14 13 12 12 13 13 14 14 14 14 14 14 14 13 13 12 12 12 13 13 12 12 11 11 12 12 11 12 12 12 11 10 10 9 9 9 8 9 9 9 8 8 7 6 5 4 4 6 2 3 3 3 2 2 4 10 11 13 13 13 12 11 12 12 11 12
7 7 7 7 8 13 13 14 17 20 19 19 18 18 18 18 16 15 15 15 14 13 13 12 13 13 14 14 14 14 13 13 13 14 13 12 12 12 12 10 10 10 10 9 9 10 11 12 12 11 11 11 9 8 8 8 7 7 7 6 6 6 5 3 2 1 2 2 3 3 3 3 3 4 10 13 13 13 13 9 11 11 11 12 11
9 6 5 5 7 11 11 12 15 19 19 19 19 18 18 16 16 16 15 15 15 14 13 13 13 13 13 13 13 13 13 13 13 13 13 13 13 12 12 11 10 10 9 10 11 10 12 12 11 11 10 11 9 7 7 7 6 6 5 5 5 5 5 3 1 2 3 3 4 3 2 5 2 4 10 11 13 13 12 11 8 8 8 11 12
6 7 5 5 7 10 11 12 15 17 18 18 18 18 17 16 16 15 15 15 15 14 14 14 13 13 13 13 13 13 13 13 13 13 13 12 12 11 12 11 10 8 9 9 11 11 12 11 11 10 10 9 7 5 5 5 5 5 4 4 4 5 4 4 2 0 7 5 4 3 5 7 1 4 13 12 12 12 11 10 11 10 10 10 10
12 7 6 3 10 9 11 12 14 15 17 17 18 18 17 16 15 14 14 14 14 14 14 14 12 13 13 13 13 12 12 12 13 13 13 12 12 12 11 11 10 11 12 11 12 12 12 12 12 11 10 9 7 4 3 3 3 3 3 4 4 4 5 5 3 6 7 6 4 3 3 3 2 7 14 13 11 11 11 10 11 10 10 10 10
11 10 6 3 3 8 10 12 14 14 17 18 18 18 17 16 15 14 14 12 12 12 14 14 13 12 12 12 12 12 11 11 11 12 12 12 12 12 11 11 12 12 11 12 13 13 13 12 11 10 9 9 7 5 2 1 2 3 5 5 5 5 7 7 4 5 5 4 4 3 3 2 4 11 12 12 12 13 11 10 10 10 10 9 10
11 9 10 5 2 10 11 12 13 14 15 16 16 16 16 16 15 14 13 12 12 12 12 12 12 12 12 11 12 11 11 11 10 11 11 11 11 11 11 11 11 12 12 11 11 12 12 11 10 9 8 7 6 4 1 2 4 5 6 7 7 8 7 5 5 5 5 4 4 3 3 3 4 11 11 11 10 11 10 10 10 9 10 9 9
11 10 9 7 3 6 13 12 13 13 14 14 14 14 15 14 13 13 13 13 13 12 12 13 12 12 12 12 11 12 11 11 11 10 10 10 10 10 10 11 11 11 12 11 11 11 11 10 9 8 6 5 4 3 2 2 4 5 6 7 9 9 9 2 2 5 5 5 3 3 3 4 9 11 12 12 10 10 10 10 10 10 9 9 10
11 9 7 11 9 7 6 13 14 14 14 15 14 15 14 14 14 13 13 12 12 11 11 11 11 12 11 11 10 11 11 11 11 10 9 10 10 10 10 10 10 11 12 11 10 10 10 10 9 7 6 5 4 3 2 1 3 4 6 7 8 10 10 6 3 6 5 5 3 3 3 4 10 11 11 11 10 11 11 10 11 10 9 9 9
13 9 4 7 9 7 6 8 12 17 14 14 14 14 14 14 13 13 12 12 12 12 12 12 12 12 11 10 10 9 10 11 11 10 10 9 9 10 10 9 9 11 12 11 11 10 10 10 8 7 6 4 3 2 2 2 2 3 4 5 7 9 9 8 4 5 5 5 4 4 4 5 10 11 12 11 10 10 10 10 10 10 10 9 9
13 14 10 6 8 8 7 8 10 9 9 11 13 13 13 13 13 12 12 12 12 11 11 10 10 11 12 11 10 11 11 10 10 9 9 9 8 8 9 10 10 11 11 11 11 10 10 10 8 7 5 3 2 1 0 1 2 3 3 4 6 8 8 7 4 4 5 5 5 4 4 6 11 12 13 12 10 9 9 9 9 9 9 9 9
8 9 10 7 8 8 7 7 7 7 8 7 6 10 12 13 12 12 11 11 11 11 11 10 11 9 10 11 11 11 11 11 9 8 8 8 9 8 8 9 10 11 11 11 10 10 9 9 8 7 5 3 1 0 1 2 3 3 3 4 7 9 7 6 4 3 3 3 3 4 5 9 10 13 13 13 11 10 10 9 8 8 9 9 9
8 7 6 5 6 7 6 7 7 7 6 6 7 7 11 13 11 11 11 11 11 11 10 10 11 11 11 11 10 8 8 7 11 7 9 8 7 5 8 9 10 10 11 11 10 9 9 8 7 6 5 3 1 2 3 3 3 4 4 3 9 7 4 4 5 4 4 3 2 4 6 10 11 12 13 13 12 11 10 9 9 9 9 9 8
7 3 4 6 6 7 7 6 6 7 6 6 6 6 9 13 11 12 12 12 10 10 10 10 10 10 8 8 7 4 4 3 4 4 7 3 5 7 8 9 10 10 10 10 10 9 8 7 6 5 4 3 1 3 5 6 6 5 5 5 8 4 2 4 5 5 4 3 3 4 9 11 11 12 12 12 12 11 10 9 9 9 9 8 8
5 5 4 6 6 6 7 7 6 7 6 5 4 4 6 8 5 6 5 7 9 9 7 4 7 4 9 6 3 3 3 3 3 5 3 3 4 7 8 8 9 9 8 8 9 8 7 7 5 4 4 2 1 1 3 6 7 7 6 6 6 1 1 4 6 5 4 3 4 5 12 11 12 11 12 11 12 11 10 9 9 8 9 9 9
8 6 6 8 6 6 6 7 7 7 6 5 4 4 5 4 4 4 5 7 7 7 4 5 3 5 3 3 3 3 3 3 3 4 3 5 4 8 7 7 8 8 8 8 8 7 5 6 5 3 2 2 0 0 3 4 5 7 6 3 5 1 0 3 6 5 5 3 3 7 11 11 11 12 11 11 11 11 10 9 9 8 8 9 8
9 8 8 6 6 6 6 6 7 7 6 5 4 4 4 4 4 4 4 4 4 4 3 4 4 4 4 4 3 3 2 3 6 8 6 3 3 7 8 7 7 7 8 5 6 6 7 5 4 4 2 0 1 1 2 4 5 5 4 2 3 2 1 3 5 5 5 5 4 9 10 11 11 11 12 11 10 10 10 9 9 8 8 7 8
5 6 7 7 6 6 6 6 7 6 6 5 5 4 4 4 4 4 4 3 4 4 4 3 3 3 3 4 3 3 2 1 2 2 3 3 3 2 3 3 2 3 5 3 4 3 3 3 2 1 2 1 2 2 1 3 4 5 5 4 0 3 0 2 5 5 5 5 5 11 10 9 10 11 11 10 11 10 9 9 9 9 8 7 7
4 6 6 7 7 7 7 6 7 6 6 5 5 5 6 4 4 4 4 3 4 4 4 3 4 3 3 3 4 4 2 2 2 2 3 4 3 4 4 3 3 3 4 5 3 3 2 3 3 2 2 2 3 2 2 3 5 4 4 4 2 4 1 4 5 5 5 5 6 12 9 9 10 11 11 11 10 10 9 9 9 8 8 8 6
5 4 5 6 7 7 7 7 6 6 6 5 4 4 5 4 4 4 4 4 4 5 4 3 3 3 3 3 4 4 3 2 3 3 4 4 4 4 4 3 3 4 4 5 3 3 4 3 3 3 2 3 3 3 3 3 3 4 3 4 3 2 3 5 5 5 5 5 6 13 10 10 11 11 12 11 11 10 9 8 9 9 8 8 8
4 3 4 5 7 7 7 8 6 6 5 6 6 5 4 5 5 5 4 4 5 4 3 3 2 4 3 3 3 4 4 4 4 3 3 3 4 5 4 4 4 4 4 4 4 4 4 2 3 3 3 3 3 3 3 3 4 3 4 4 3 2 4 5 6 5 5 5 5 10 11 11 11 11 12 11 11 11 10 9 9 9 9 8 8
4 3 5 4 4 6 7 7 6 7 5 6 6 5 5 5 5 4 5 5 4 4 4 3 3 3 3 3 3 4 4 4 4 3 4 3 4 4 4 4 3 4 4 4 5 5 4 4 3 3 2 3 2 3 3 4 4 5 6 3 2 4 4 6 6 6 5 5 5 7 11 10 9 10 11 10 10 10 9 10 9 9 9 9 8
4 2 3 3 1 5 7 8 8 7 7 6 5 5 5 6 5 5 5 4 4 4 5 4 3 4 4 3 3 4 5 5 5 3 5 4 4 4 4 4 4 3 4 4 4 5 5 3 3 3 3 2 2 5 3 5 5 5 5 4 3 5 6 6 6 6 6 6 5 5 10 9 9 9 9 10 11 10 10 10 10 10 10 9 9
2 6 6 6 5 7 8 8 8 8 7 7 6 6 6 5 5 5 5 4 3 4 5 4 4 3 4 3 3 3 4 3 3 4 4 4 4 4 4 4 4 3 3 4 3 3 3 4 4 3 3 2 2 2 2 4 3 3 1 2 1 2 5 6 6 6 7 7 6 5 7 11 10 11 10 9 8 10 10 10 11 10 10 10 9
8 6 7 8 10 10 8 9 9 8 9 8 6 6 5 6 6 5 5 4 4 4 5 5 5 4 3 3 3 3 3 3 3 3 4 4 4 4 4 4 3 3 3 2 3 3 3 3 3 3 3 1 2 2 1 1 3 2 1 1 1 4 5 4 6 7 6 6 6 6 6 7 11 12 12 10 9 8 11 11 11 11 10 10 10
4 8 6 5 9 10 9 9 9 8 8 8 7 6 6 6 6 6 6 5 5 4 4 5 5 5 4 4 3 3 3 3 2 3 4 3 3 3 3 3 3 3 2 2 2 2 2 2 3 1 1 3 1 0 0 2 4 4 3 3 3 3 3 6 5 5 6 7 6 6 6 6 6 11 12 12 11 9 10 10 11 11 10 11 11
6 4 5 7 7 5 6 7 8 9 7 7 6 6 5 5 5 5 5 5 5 5 4 4 5 5 5 4 4 4 4 4 3 4 4 3 3 2 2 2 2 2 2 1 2 2 3 2 3 3 3 2 1 0 0 2 4 3 5 3 5 5 3 4 5 3 2 2 4 5 6 5 5 5 6 12 12 11 11 9 12 12 11 12 11
7 7 10 12 10 8 7 7 7 7 7 7 7 6 5 6 5 5 4 3 3 4 4 3 3 4 4 4 3 4 4 3 3 4 3 2 3 2 1 1 1 2 2 1 1 1 1 3 4 4 1 1 2 1 2 3 3 4 3 4 4 4 5 4 2 6 3 3 3 2 3 5 5 5 5 6 10 12 12 11 12 11 13 12 13
11 11 11 11 10 9 10 10 8 8 8 9 8 7 8 6 5 5 5 4 3 3 3 3 3 3 3 3 3 3 3 3 4 3 4 4 3 2 2 3 3 3 3 2 1 1 0 3 1 4 2 2 2 4 4 3 3 2 2 3 3 4 5 4 4 4 3 4 4 4 3 3 4 5 5 5 5 7 13 11 11 11 12 12 12
9 11 11 11 11 10 12 12 11 10 8 8 8 7 6 6 5 5 5 5 5 4 3 3 4 3 3 3 3 2 3 3 3 3 4 4 3 2 2 3 3 3 2 2 2 0 1 3 2 1 3 3 3 4 3 2 2 1 1 3 3 3 3 4 3 3 4 3 4 5 5 5 4 5 4 4 5 5 9 12 11 11 11 12 11
8 11 12 13 12 9 9 9 8 8 9 9 8 7 6 6 6 5 4 4 4 4 3 2 4 4 4 3 3 3 3 3 3 3 4 3 2 2 2 4 3 4 2 2 2 1 3 3 3 2 2 3 2 3 1 1 1 2 2 3 2 2 1 2 3 3 3 2 2 3 6 6 6 6 5 4 3 4 5 9 11 10 10 11 11
10 11 11 11 10 8 8 8 9 8 8 8 6 6 5 4 6 7 5 4 3 3 1 0 0 0 1 1 1 1 1 1 1 2 3 2 2 2 3 3 4 4 3 4 2 1 3 2 3 2 3 3 3 2 2 3 1 1 2 2 2 1 0 1 2 4 3 3 3 2 1 5 4 4 4 4 3 3 3 3 5 5 7 12 11
10 11 11 10 10 8 7 7 7 7 6 7 7 7 6 6 6 6 6 5 4 3 2 0 0 0 1 1 2 3 2 2 2 2 1 1 1 2 3 2 3 4 5 6 3 1 3 3 2 3 4 3 2 3 3 2 1 3 1 1 0 1 1 1 1 2 3 3 3 2 3 1 6 6 6 5 5 5 5 3 3 4 3 6 9
10 12 11 9 10 10 10 9 6 6 8 7 6 7 7 6 5 5 6 4 5 4 3 1 1 1 1 2 2 2 3 3 5 4 3 4 3 2 3 3 3 3 3 4 4 2 2 2 2 2 2 2 2 2 1 2 2 1 2 3 3 1 1 1 1 0 1 4 1 2 2 3 1 3 6 5 6 6 5 5 5 5 5 4 5
8 11 12 10 8 9 10 8 6 5 6 6 6 5 4 6 7 6 6 5 6 6 4 2 3 3 3 2 3 3 3 3 2 3 5 5 5 3 3 4 4 4 3 3 3 4 4 4 4 3 2 2 1 0 1 1 3 1 1 3 3 3 1 1 1 0 0 2 3 2 2 3 2 2 1 5 6 7 6 6 6 6 6 5 5
9 10 10 10 8 8 8 7 6 5 4 4 5 4 3 4 7 4 8 3 1 2 3 1 2 4 4 3 2 1 0 1 2 1 2 2 4 5 4 4 3 4 4 4 3 3 3 4 3 4 2 2 1 0 0 2 1 1 1 2 1 2 3 2 1 2 1 0 2 3 3 3 1 1 2 2 3 5 6 6 7 7 7 6 6
8 8 9 10 8 7 7 7 6 4 4 3 4 4 6 5 6 6 4 5 5 3 4 3 4 6 6 4 4 3 3 3 2 1 1 2 3 3 3 3 4 3 3 4 3 3 3 3 2 2 3 2 1 0 1 1 3 1 0 1 0 0 2 1 1 2 2 1 1 2 2 3 2 2 1 2 3 2 3 5 6 7 8 8 7
9 9 9 9 7 8 8 7 6 4 3 4 6 8 9 8 7 6 7 7 6 6 5 4 4 3 3 5 4 4 4 4 3 4 3 3 2 2 2 2 3 2 3 3 3 3 3 3 3 3 4 3 3 2 1 1 2 1 3 2 1 0 2 2 1 1 3 2 3 1 1 2 3 3 2 3 5 5 3 2 3 3 5 6 7
8 8 8 8 8 8 7 6 4 4 5 5 8 8 9 10 8 8 7 7 6 5 6 4 3 4 3 0 3 4 4 5 5 5 5 4 5 3 4 3 3 3 3 3 3 3 3 3 2 3 2 2 4 4 2 1 2 1 1 0 1 1 1 2 1 1 2 0 2 1 1 1 0 4 5 4 3 4 4 3 2 3 3 3 3
7 7 7 8 8 9 8 6 6 5 6 5 7 8 8 8 9 8 8 8 8 3 2 3 4 2 2 4 3 3 4 5 5 5 5 4 5 4 5 5 4 3 3 4 3 3 3 2 2 3 2 3 4 3 4 2 2 1 1 2 1 0 1 0 0 0 1 3 2 2 4 3 3 3 1 3 6 6 5 3 4 3 3 3 2
9 8 8 7 10 10 9 7 6 7 6 6 7 10 10 7 7 7 7 7 7 6 5 4 3 3 4 2 3 3 3 3 4 4 4 5 6 6 6 5 6 5 5 5 4 3 5 3 3 3 3 2 3 5 3 3 3 1 1 1 2 2 1 2 1 1 2 0 2 3 2 5 4 3 2 3 3 4 3 3 3 3 3 2 2
10 10 10 9 10 10 10 8 8 8 7 8 9 8 10 9 8 7 6 3 6 7 5 4 4 3 4 3 4 3 4 4 4 4 4 5 5 5 5 6 6 5 5 6 5 6 5 4 4 5 4 4 3 3 3 2 1 2 4 1 0 2 2 3 1 2 1 1 0 1 3 4 3 4 4 4 4 4 3 2 2 2 3 2 3
8 9 8 9 9 9 10 10 9 9 9 8 9 9 10 9 9 7 8 6 6 5 5 6 5 4 4 3 4 4 4 5 4 4 4 4 5 4 5 5 5 5 5 5 5 6 5 5 4 4 4 5 4 5 3 2 2 2 1 4 2 1 2 2 3 2 2 2 2 1 2 3 5 5 2 4 4 3 3 3 3 2 2 2 3
4 7 8 10 9 10 11 11 10 8 8 9 10 10 9 10 10 9 9 9 7 7 7 6 5 4 4 4 4 4 4 4 3 3 4 4 4 4 5 4 4 4 5 5 5 5 5 5 5 5 5 5 5 5 5 4 4 6 6 5 4 2 2 2 1 2 2 1 2 2 2 2 1 4 5 5 4 3 3 5 4 2 3 2 1
Wind_Direction
185 140 143 156 148 140 135 133 132 130 126 124 122 120 119 118 116 112 110 109 108 104 102 98 97 97 98 99 103 103 101 101 101 102 103 104 105 105 106 108 109 108 105 100 98 95 95 97 95 92 93 97 98 99 100 97 97 98 100 102 104 106 100 97 100 96 86 90 86 81 82 85 85 85 83 84 85 83 79 73 67 62 57 74 74
151 133 135 151 147 138 134 133 131 128 127 125 123 123 122 120 117 113 111 110 109 107 104 100 99 98 99 99 100 101 101 102 102 103 105 106 106 107 107 105 106 106 103 101 99 98 96 95 95 96 97 96 97 100 98 97 99 102 103 102 101 101 99 100 96 93 94 90 85 83 84 85 84 83 85 85 85 85 84 81 77 67 65 73 73
127 127 133 148 144 136 132 132 131 127 125 125 126 124 123 122 118 115 113 111 110 108 105 103 101 101 100 101 101 102 101 102 105 105 105 106 107 108 107 107 108 106 104 103 103 103 102 100 101 102 102 100 101 101 103 103 101 103 103 103 103 103 103 102 99 96 93 94 95 93 90 87 85 87 85 84 85 84 82 81 78 75 74 71 72
127 127 133 145 139 132 131 131 129 127 125 124 124 124 124 122 119 116 115 113 112 109 106 104 103 102 102 103 104 105 104 103 103 106 106 107 107 107 107 103 105 106 106 105 106 103 99 99 98 98 99 102 102 104 106 107 107 104 105 107 110 108 108 105 99 93 92 90 83 76 65 77 82 87 87 86 86 88 87 88 85 84 81 79 76
122 125 126 131 128 131 131 129 129 127 125 124 125 127 126 124 120 117 116 115 111 109 108 107 106 105 105 105 106 106 105 105 104 106 107 109 109 108 106 109 104 108 108 108 106 104 102 100 98 98 97 100 100 103 106 108 107 106 106 109 109 112 113 108 102 96 92 89 82 73 76 77 88 91 91 91 91 87 88 84 85 84 83 77 74
124 122 119 118 125 131 131 132 131 130 126 127 129 128 129 126 122 119 117 115 112 110 111 110 109 109 109 108 108 108 108 106 105 105 106 106 106 112 116 114 114 115 111 109 108 106 102 99 101 101 100 99 100 105 109 109 107 106 107 108 108 112 118 120 114 102 90 91 82 77 77 74 73 83 92 88 85 90 92 90 87 85 82 77 73
120 118 122 123 128 135 137 137 134 131 130 129 129 129 128 127 125 122 121 119 117 116 115 113 112 112 111 111 111 111 110 110 109 110 112 114 114 111 102 109 112 115 110 107 105 105 105 104 101 99 99 104 106 108 110 109 106 103 102 100 102 108 128 131 131 82 72 83 82 86 82 85 92 102 100 98 91 79 89 95 90 84 82 87 87
110 121 127 129 133 141 141 139 135 133 131 130 130 130 128 127 127 126 125 123 120 118 117 117 115 114 114 113 113 114 114 113 114 114 115 117 113 110 119 121 115 114 110 109 109 108 107 105 103 103 103 107 112 107 104 100 95 94 91 90 91 94 91 122 147 72 85 69 90 89 91 80 73 82 91 101 97 89 82 85 89 92 91 85 77
105 110 113 120 130 137 136 134 134 132 131 129 129 128 128 130 129 129 128 126 123 122 122 121 119 118 117 116 115 114 114 115 112 112 113 112 112 117 121 119 108 105 101 92 94 97 106 108 107 102 105 111 110 107 104 100 93 87 83 81 91 89 85 65 53 69 69 138 117 116 109 101 104 110 98 98 94 90 85 75 85 90 90 86 85
11 50 85 100 119 126 126 130 131 130 129 130 129 129 129 129 130 130 128 127 126 127 127 126 124 121 119 118 119 118 116 114 112 110 108 106 105 104 103 106 109 107 105 113 115 121 117 115 111 105 102 107 118 120 115 112 99 89 83 78 84 78 73 64 19 270 175 150 136 134 141 130 116 102 107 104 103 100 100 104 100 97 97 91 88
58 7 32 80 111 121 126 129 129 129 129 128 130 129 128 129 131 129 128 129 129 131 132 130 126 123 121 120 120 119 119 118 115 113 111 109 109 110 109 110 111 113 108 113 123 117 115 114 112 111 109 106 108 121 117 119 98 101 74 71 71 62 55 31 3 284 147 142 134 155 140 127 111 100 105 106 103 101 99 94 98 92 84 89 89
101 79 26 34 122 123 129 131 129 129 130 130 129 128 129 130 128 128 128 130 132 133 133 130 127 125 123 123 122 123 122 120 118 117 116 115 113 113 113 110 108 104 101 99 103 106 108 109 113 117 119 121 127 133 140 138 103 91 70 52 53 49 36 30 29 89 120 131 134 134 108 116 122 112 112 110 107 105 106 107 104 101 96 83 89
100 109 106 31 91 127 125 128 128 129 130 130 130 130 130 130 129 131 131 132 133 133 132 130 128 127 127 127 127 124 122 120 119 119 118 117 116 115 112 110 108 107 111 112 112 112 113 117 121 122 126 133 140 157 164 146 56 40 28 33 34 33 35 36 74 103 113 114 116 107 105 129 106 108 106 109 115 111 107 108 102 101 101 101 84
119 116 113 109 170 133 131 129 128 128 129 129 130 130 130 130 131 130 132 133 133 132 129 127 128 128 128 128 129 126 123 120 118 115 115 114 115 115 114 115 114 116 116 117 119 118 119 122 123 125 132 138 135 146 111 357 20 15 12 12 16 25 38 35 92 117 118 117 119 129 135 122 115 112 111 115 114 115 116 111 110 101 93 95 87
123 116 112 118 174 150 135 126 124 123 122 122 124 127 128 128 128 129 133 135 134 131 130 130 128 130 130 130 128 126 126 125 121 120 119 119 118 117 118 119 122 122 119 120 121 121 123 124 127 131 127 121 116 119 92 16 10 11 7 9 17 19 19 49 126 131 124 125 136 139 140 120 122 122 123 123 122 110 105 109 113 110 108 102 92
124 116 138 138 160 147 135 126 120 120 121 124 126 127 128 129 130 134 135 136 135 135 132 131 132 132 131 128 129 129 130 129 128 126 126 124 124 124 123 123 123 125 123 126 126 125 127 129 131 130 125 122 138 138 102 58 27 24 22 22 24 23 16 33 126 136 134 134 145 155 143 133 130 126 122 122 126 126 126 120 118 118 116 108 104
121 109 137 143 137 137 139 128 129 127 125 126 127 129 130 131 134 137 139 139 139 137 137 137 137 134 132 131 129 128 128 130 132 132 131 131 130 130 128 127 129 129 130 130 134 136 134 135 135 130 130 138 138 150 144 110 66 54 51 46 38 31 22 38 120 131 131 143 150 155 146 134 133 130 129 125 123 123 125 124 122 120 119 117 115
140 143 154 175 138 139 138 133 128 124 124 123 127 130 132 133 135 139 141 140 138 138 137 139 138 136 135 131 128 130 131 131 133 132 131 133 132 132 133 133 133 134 137 139 143 144 143 140 138 136 134 137 160 158 55 11 65 60 63 53 55 47 36 52 123 132 137 150 148 151 143 145 141 139 135 134 136 131 126 123 124 121 121 117 103
123 150 152 159 136 137 129 123 122 121 120 125 131 136 134 137 139 142 141 140 136 137 137 136 138 134 133 132 132 129 127 121 119 120 128 133 139 136 138 139 138 141 144 147 149 148 145 143 144 143 146 151 181 339 352 14 7 5 30 50 63 64 44 67 112 130 138 132 151 145 156 151 145 143 141 139 142 141 132 130 126 124 119 120 127
140 158 136 126 130 123 124 123 121 121 124 128 131 135 138 140 140 141 140 137 137 136 137 135 136 135 135 134 131 129 126 121 121 121 132 134 133 132 146 145 145 148 150 152 154 152 151 151 153 150 151 156 178 318 331 334 350 348 359 35 69 80 58 70 127 124 110 139 160 163 159 150 151 150 147 146 145 142 140 137 138 133 129 125 118
141 151 140 138 135 131 128 119 119 122 124 128 129 135 146 143 143 143 142 140 136 140 142 141 137 136 131 129 115 105 109 108 111 116 125 112 131 146 151 150 150 151 156 159 156 157 155 153 151 153 155 151 136 327 325 330 331 343 348 353 70 76 97 95 130 126 138 158 168 189 160 157 158 155 151 149 146 149 143 142 142 140 132 128 131
148 134 142 134 135 134 130 124 122 125 127 125 131 138 143 139 137 141 139 142 143 143 137 133 136 116 128 125 119 118 114 119 139 136 131 132 137 156 155 155 154 156 156 156 159 159 160 155 157 162 158 145 148 13 336 330 329 325 332 349 71 47 67 112 135 139 150 163 173 188 164 162 160 156 155 153 151 146 148 151 149 143 141 143 136
149 149 153 147 145 137 135 132 133 135 129 128 133 132 128 134 132 131 142 148 155 140 129 130 101 114 117 127 117 116 131 134 138 143 149 139 143 158 158 157 156 155 154 157 162 161 155 159 167 170 169 160 72 353 333 318 320 323 333 0 86 59 258 124 138 149 153 162 177 184 167 165 161 159 155 155 154 152 154 159 150 151 149 142 142
145 152 147 141 139 136 140 140 143 146 139 138 133 131 134 131 134 135 139 145 118 118 109 117 121 128 133 132 134 132 125 175 169 162 155 132 144 155 160 155 154 154 154 148 163 167 158 162 179 186 171 113 171 268 308 318 308 306 306 320 82 94 318 134 149 148 150 167 177 181 171 169 164 160 157 157 158 156 167 162 159 154 150 150 146
142 137 135 141 142 143 147 151 148 150 142 145 144 141 134 128 129 139 145 138 121 111 113 111 112 104 126 131 130 121 119 86 74 79 101 127 102 97 102 94 107 118 129 109 137 153 145 146 202 156 151 210 240 262 267 293 296 297 300 298 27 116 282 133 152 148 157 164 174 176 176 172 165 160 160 163 164 168 172 168 165 163 156 155 156
136 147 142 143 155 157 155 156 152 154 149 147 149 154 146 141 142 154 148 145 130 123 117 123 107 104 119 128 115 120 121 92 110 154 139 110 111 99 100 108 109 120 132 129 132 122 138 159 174 203 234 239 258 260 246 251 276 287 283 278 265 118 187 136 148 153 160 163 175 173 176 170 165 168 165 166 169 172 175 174 175 166 170 167 170
143 156 153 156 164 165 158 155 155 144 139 147 148 152 152 155 152 160 157 168 145 139 138 126 112 119 129 138 125 134 133 130 164 172 131 119 126 117 106 116 122 132 138 137 147 152 155 174 188 213 224 239 256 262 251 256 259 273 255 263 277 103 180 144 150 151 163 169 176 173 174 170 172 174 172 170 174 175 181 182 184 174 178 171 171
105 154 165 168 170 167 156 156 146 141 145 153 159 164 154 153 163 167 173 189 160 144 124 135 132 127 141 144 140 146 150 155 191 174 132 115 129 126 125 123 129 141 134 137 148 168 161 160 192 221 227 236 244 248 256 257 257 241 234 225 239 122 175 150 150 150 160 167 179 177 178 177 177 181 176 176 175 183 178 185 194 186 184 182 180
130 175 161 167 172 161 155 154 148 151 154 155 166 165 156 155 159 155 177 200 173 153 141 152 158 150 151 157 149 150 155 166 188 167 121 133 135 133 140 151 145 151 134 146 154 163 175 186 200 212 225 255 283 297 278 263 251 232 223 225 207 163 152 152 153 153 157 166 174 181 181 180 180 173 177 182 186 186 177 184 194 192 191 193 182
180 168 83 53 356 167 166 161 158 160 158 162 168 159 163 157 153 161 179 190 198 144 137 157 183 165 159 166 165 157 165 175 190 148 140 150 148 143 145 164 151 164 151 159 165 158 184 188 204 220 218 230 241 251 268 264 236 221 218 212 193 168 155 154 159 159 156 159 174 186 182 180 170 166 178 189 195 191 187 188 188 191 194 196 190
128 207 143 121 51 291 173 162 160 162 162 168 168 165 157 153 153 159 155 172 181 133 138 154 171 171 164 154 156 166 167 182 172 149 140 149 150 149 170 172 164 175 168 175 153 170 182 190 202 214 221 223 249 279 299 291 211 224 259 278 37 140 156 162 162 159 162 167 171 185 186 182 177 174 178 189 200 201 193 195 191 192 195 197 196
158 218 168 144 141 230 189 166 163 163 169 173 162 153 155 156 154 142 147 165 155 145 144 157 161 168 163 148 160 156 153 178 166 150 137 151 155 161 172 176 179 176 170 157 159 164 190 205 203 213 227 173 199 272 274 313 48 27 355 32 330 154 160 177 165 168 169 168 173 186 183 183 185 180 180 187 194 200 203 198 197 195 196 199 199
193 166 161 143 171 203 174 166 163 166 172 170 165 159 161 160 149 151 161 163 163 151 149 159 155 160 169 159 151 131 120 130 125 131 136 159 159 157 167 190 177 166 162 157 152 189 199 215 231 206 97 116 141 319 326 342 33 9 35 27 35 68 185 166 177 177 176 173 178 184 183 184 187 187 185 186 191 194 201 201 195 200 195 196 198
168 185 156 175 198 187 151 155 163 168 169 168 149 158 164 153 160 160 162 161 168 153 154 155 152 155 161 152 150 145 148 152 142 106 115 143 151 168 179 181 161 138 110 126 175 212 223 204 210 145 167 127 124 257 42 38 23 33 47 34 41 24 53 130 157 185 187 193 182 181 183 186 187 186 188 190 191 194 198 197 199 198 195 198 199
152 154 175 178 168 153 145 151 161 157 164 166 158 158 157 165 156 158 150 149 145 145 145 147 141 150 149 160 155 153 148 154 148 139 110 128 142 160 163 199 175 136 134 103 90 287 206 194 148 144 116 49 25 21 22 62 67 57 47 49 46 45 49 34 101 160 151 150 160 200 209 195 187 189 188 189 195 197 196 197 203 197 196 200 204
151 139 130 137 138 140 142 141 143 145 158 163 161 155 166 165 158 145 136 139 134 133 143 143 133 142 164 167 164 153 156 149 141 140 148 162 169 142 167 177 170 152 144 113 63 26 301 154 176 149 111 36 61 32 31 52 83 92 60 61 55 43 68 47 43 80 136 153 171 182 196 214 214 204 190 188 191 200 200 202 204 199 193 201 207
132 125 127 128 128 133 134 137 139 139 140 145 147 151 153 154 151 130 151 143 138 139 146 132 129 144 186 181 165 162 164 149 156 156 157 175 156 123 140 145 132 133 118 120 103 47 74 111 48 16 134 135 95 73 46 36 49 42 32 54 36 49 41 69 47 46 85 124 188 187 185 201 208 218 205 198 205 205 206 205 208 203 197 197 206
133 129 132 132 132 133 134 130 127 129 132 135 139 140 140 139 133 137 138 118 119 132 153 150 153 169 185 193 172 170 182 174 166 173 171 162 140 148 116 127 126 117 110 78 113 136 85 112 106 35 93 122 100 106 103 72 20 62 65 66 61 37 11 88 81 43 31 48 40 177 200 195 191 198 197 205 218 216 215 214 210 209 204 199 205
139 131 126 125 125 129 128 125 121 123 122 124 120 102 91 82 92 112 101 81 65 50 61 70 289 98 232 227 158 190 205 152 161 187 175 146 137 152 119 129 134 128 121 73 326 90 94 89 122 84 56 75 116 132 150 139 93 45 60 47 19 56 289 48 102 97 70 14 10 356 202 199 187 187 186 190 200 222 244 244 219 213 213 207 207
135 128 125 126 124 123 119 117 121 126 124 119 116 105 99 111 96 85 82 77 75 77 47 18 9 184 279 228 198 192 186 169 184 192 187 130 115 141 149 144 128 122 125 140 200 191 130 109 101 100 77 57 48 93 101 102 75 66 46 339 295 301 138 106 42 102 106 54 11 352 16 124 177 183 188 193 190 198 201 214 239 251 246 232 223
132 128 126 128 133 137 132 130 135 132 129 131 123 124 119 107 90 98 107 105 109 103 95 121 116 136 181 233 248 247 221 184 178 173 170 182 166 169 138 126 125 126 131 145 153 139 131 127 105 75 93 67 15 18 38 115 93 359 10 22 347 338 320 80 88 84 92 98 51 37 3 26 3 214 197 191 190 198 195 193 198 206 219 224 225
144 133 132 136 136 136 134 133 132 131 134 142 138 119 135 141 135 139 125 120 116 111 106 79 91 100 110 161 219 240 250 250 201 180 169 173 152 156 149 154 148 150 150 146 155 139 130 125 129 75 53 113 97 15 325 61 15 75 29 336 340 321 289 29 57 251 91 109 110 76 41 66 27 343 289 197 199 201 193 190 186 194 201 203 207
145 135 133 130 132 133 134 134 139 143 152 140 123 126 104 118 123 145 132 106 44 110 115 106 71 66 47 64 76 66 269 294 266 240 204 146 143 151 168 160 152 152 140 145 139 134 137 134 130 132 103 65 103 116 96 74 147 101 137 77 323 358 327 2 342 344 357 127 130 143 139 124 105 16 326 318 249 201 189 183 186 192 196 199 201
137 134 138 137 139 138 140 142 148 148 148 128 102 90 102 97 99 119 98 106 135 101 77 61 48 43 30 15 40 62 76 62 54 96 151 178 156 144 139 145 159 158 144 128 135 142 131 138 155 146 128 111 94 358 46 79 104 112 142 177 223 111 331 318 324 295 325 11 122 133 141 142 138 108 35 342 321 302 222 186 191 192 195 197 196
150 150 150 146 148 148 151 153 153 142 131 118 117 118 108 98 98 86 94 85 65 65 73 46 32 49 47 35 9 27 35 34 42 59 70 76 94 151 140 125 109 120 125 137 147 145 150 164 165 148 163 140 138 96 20 127 156 128 132 82 6 25 224 245 1 311 349 19 16 54 112 149 135 106 115 42 343 331 308 240 219 215 214 206 199
156 159 151 147 141 147 152 150 123 123 129 137 140 132 129 131 127 121 114 108 107 109 121 130 93 89 94 322 17 32 38 38 29 39 47 61 65 77 79 78 92 107 116 114 115 107 94 103 130 139 121 108 138 128 143 147 176 201 109 159 170 182 217 255 90 295 319 190 313 301 286 282 215 158 140 98 357 293 307 295 221 219 244 256 251
165 154 152 150 145 149 161 147 140 140 137 151 147 130 128 134 137 138 138 141 138 167 138 136 136 149 112 71 37 21 40 59 35 37 40 54 70 75 83 75 71 78 81 77 64 67 63 79 103 108 132 122 113 123 152 142 111 120 117 290 345 263 184 70 251 334 7 320 349 321 319 335 323 327 1 141 196 223 228 231 282 281 237 224 255
161 158 157 153 154 159 161 149 147 148 156 156 145 141 135 132 128 129 135 140 146 152 149 155 137 128 96 76 55 33 32 52 61 38 41 58 71 67 71 69 69 66 72 67 71 64 66 42 60 85 84 79 112 131 130 161 154 203 135 281 301 330 28 60 94 152 158 123 326 324 297 310 317 285 237 240 230 223 210 234 220 247 276 259 206
162 165 165 163 162 164 162 150 152 156 164 160 146 144 138 140 136 135 129 141 142 148 148 138 128 116 110 92 82 70 55 43 59 64 44 61 68 83 82 76 72 70 75 74 64 65 71 67 49 47 57 52 67 109 128 213 163 172 130 168 25 22 20 26 40 63 105 113 289 350 319 322 333 295 287 279 268 269 276 269 269 248 185 238 265
169 160 156 159 166 164 164 158 161 165 165 163 150 148 141 136 134 141 139 145 141 141 136 136 132 135 131 123 102 84 69 58 48 60 69 62 74 76 81 84 87 81 78 82 80 73 66 66 65 71 69 70 48 77 97 73 61 66 133 144 116 70 22 6 7 22 46 72 140 327 317 338 350 305 324 304 287 299 300 303 306 298 313 299 252
147 153 159 165 166 167 169 167 166 164 162 165 157 155 148 143 140 144 143 149 156 151 139 136 136 132 133 121 110 104 86 78 63 51 68 67 68 70 82 82 74 74 72 71 76 87 85 88 87 77 70 80 74 75 67 55 70 68 64 86 109 133 156 123 51 18 105 78 45 358 319 318 263 322 320 334 323 319 330 320 300 299 281 256 229